; 10.000.480,00 
01.01.2025 00:15;516
01.01.2025 00:30;487
01.01.2025 00:45;469
01.01.2025 01:00;452
01.01.2025 01:15;436
01.01.2025 01:30;421
01.01.2025 01:45;408
01.01.2025 02:00;393
01.01.2025 02:15;386
01.01.2025 02:30;383
01.01.2025 02:45;375
01.01.2025 03:00;368
01.01.2025 03:15;367
01.01.2025 03:30;362
01.01.2025 03:45;358
01.01.2025 04:00;357
01.01.2025 04:15;353
01.01.2025 04:30;359
01.01.2025 04:45;361
01.01.2025 05:00;365
01.01.2025 05:15;363
01.01.2025 05:30;365
01.01.2025 05:45;369
01.01.2025 06:00;373
01.01.2025 06:15;376
01.01.2025 06:30;383
01.01.2025 06:45;391
01.01.2025 07:00;397
01.01.2025 07:15;414
01.01.2025 07:30;423
01.01.2025 07:45;438
01.01.2025 08:00;460
01.01.2025 08:15;490
01.01.2025 08:30;510
01.01.2025 08:45;535
01.01.2025 09:00;553
01.01.2025 09:15;595
01.01.2025 09:30;631
01.01.2025 09:45;668
01.01.2025 10:00;692
01.01.2025 10:15;703
01.01.2025 10:30;739
01.01.2025 10:45;768
01.01.2025 11:00;797
01.01.2025 11:15;810
01.01.2025 11:30;830
01.01.2025 11:45;844
01.01.2025 12:00;864
01.01.2025 12:15;876
01.01.2025 12:30;906
01.01.2025 12:45;917
01.01.2025 13:00;902
01.01.2025 13:15;862
01.01.2025 13:30;856
01.01.2025 13:45;845
01.01.2025 14:00;838
01.01.2025 14:15;812
01.01.2025 14:30;800
01.01.2025 14:45;792
01.01.2025 15:00;792
01.01.2025 15:15;784
01.01.2025 15:30;781
01.01.2025 15:45;790
01.01.2025 16:00;779
01.01.2025 16:15;787
01.01.2025 16:30;820
01.01.2025 16:45;879
01.01.2025 17:00;952
01.01.2025 17:15;1023
01.01.2025 17:30;1090
01.01.2025 17:45;1143
01.01.2025 18:00;1191
01.01.2025 18:15;1187
01.01.2025 18:30;1196
01.01.2025 18:45;1185
01.01.2025 19:00;1166
01.01.2025 19:15;1157
01.01.2025 19:30;1123
01.01.2025 19:45;1092
01.01.2025 20:00;1069
01.01.2025 20:15;1071
01.01.2025 20:30;1013
01.01.2025 20:45;964
01.01.2025 21:00;922
01.01.2025 21:15;881
01.01.2025 21:30;851
01.01.2025 21:45;809
01.01.2025 22:00;793
01.01.2025 22:15;786
01.01.2025 22:30;778
01.01.2025 22:45;739
01.01.2025 23:00;698
01.01.2025 23:15;668
01.01.2025 23:30;630
01.01.2025 23:45;597
02.01.2025 00:00;568
02.01.2025 00:15;721
02.01.2025 00:30;708
02.01.2025 00:45;675
02.01.2025 01:00;648
02.01.2025 01:15;626
02.01.2025 01:30;625
02.01.2025 01:45;615
02.01.2025 02:00;612
02.01.2025 02:15;599
02.01.2025 02:30;586
02.01.2025 02:45;586
02.01.2025 03:00;588
02.01.2025 03:15;589
02.01.2025 03:30;593
02.01.2025 03:45;596
02.01.2025 04:00;603
02.01.2025 04:15;614
02.01.2025 04:30;625
02.01.2025 04:45;641
02.01.2025 05:00;669
02.01.2025 05:15;709
02.01.2025 05:30;746
02.01.2025 05:45;807
02.01.2025 06:00;885
02.01.2025 06:15;1015
02.01.2025 06:30;1140
02.01.2025 06:45;1287
02.01.2025 07:00;1407
02.01.2025 07:15;1522
02.01.2025 07:30;1632
02.01.2025 07:45;1698
02.01.2025 08:00;1745
02.01.2025 08:15;1810
02.01.2025 08:30;1842
02.01.2025 08:45;1860
02.01.2025 09:00;1886
02.01.2025 09:15;1864
02.01.2025 09:30;1876
02.01.2025 09:45;1949
02.01.2025 10:00;2000
02.01.2025 10:15;1973
02.01.2025 10:30;1984
02.01.2025 10:45;1989
02.01.2025 11:00;1982
02.01.2025 11:15;2002
02.01.2025 11:30;2016
02.01.2025 11:45;2037
02.01.2025 12:00;2048
02.01.2025 12:15;2037
02.01.2025 12:30;2034
02.01.2025 12:45;2039
02.01.2025 13:00;2036
02.01.2025 13:15;2034
02.01.2025 13:30;2022
02.01.2025 13:45;1969
02.01.2025 14:00;1949
02.01.2025 14:15;1911
02.01.2025 14:30;1877
02.01.2025 14:45;1854
02.01.2025 15:00;1860
02.01.2025 15:15;1834
02.01.2025 15:30;1801
02.01.2025 15:45;1764
02.01.2025 16:00;1755
02.01.2025 16:15;1735
02.01.2025 16:30;1729
02.01.2025 16:45;1723
02.01.2025 17:00;1727
02.01.2025 17:15;1732
02.01.2025 17:30;1770
02.01.2025 17:45;1752
02.01.2025 18:00;1785
02.01.2025 18:15;1808
02.01.2025 18:30;1841
02.01.2025 18:45;1902
02.01.2025 19:00;1895
02.01.2025 19:15;1888
02.01.2025 19:30;1836
02.01.2025 19:45;1806
02.01.2025 20:00;1748
02.01.2025 20:15;1679
02.01.2025 20:30;1596
02.01.2025 20:45;1520
02.01.2025 21:00;1459
02.01.2025 21:15;1407
02.01.2025 21:30;1349
02.01.2025 21:45;1267
02.01.2025 22:00;1185
02.01.2025 22:15;1115
02.01.2025 22:30;1052
02.01.2025 22:45;1000
02.01.2025 23:00;953
02.01.2025 23:15;902
02.01.2025 23:30;850
02.01.2025 23:45;799
03.01.2025 00:00;761
03.01.2025 00:15;701
03.01.2025 00:30;666
03.01.2025 00:45;647
03.01.2025 01:00;622
03.01.2025 01:15;606
03.01.2025 01:30;582
03.01.2025 01:45;571
03.01.2025 02:00;555
03.01.2025 02:15;544
03.01.2025 02:30;537
03.01.2025 02:45;530
03.01.2025 03:00;543
03.01.2025 03:15;557
03.01.2025 03:30;562
03.01.2025 03:45;566
03.01.2025 04:00;570
03.01.2025 04:15;592
03.01.2025 04:30;619
03.01.2025 04:45;649
03.01.2025 05:00;669
03.01.2025 05:15;706
03.01.2025 05:30;750
03.01.2025 05:45;823
03.01.2025 06:00;912
03.01.2025 06:15;1026
03.01.2025 06:30;1191
03.01.2025 06:45;1314
03.01.2025 07:00;1457
03.01.2025 07:15;1603
03.01.2025 07:30;1741
03.01.2025 07:45;1831
03.01.2025 08:00;1910
03.01.2025 08:15;2004
03.01.2025 08:30;2003
03.01.2025 08:45;2016
03.01.2025 09:00;1996
03.01.2025 09:15;1986
03.01.2025 09:30;2055
03.01.2025 09:45;2102
03.01.2025 10:00;2118
03.01.2025 10:15;2108
03.01.2025 10:30;2108
03.01.2025 10:45;2149
03.01.2025 11:00;2127
03.01.2025 11:15;2070
03.01.2025 11:30;2104
03.01.2025 11:45;2101
03.01.2025 12:00;2081
03.01.2025 12:15;2057
03.01.2025 12:30;2047
03.01.2025 12:45;2027
03.01.2025 13:00;1979
03.01.2025 13:15;1968
03.01.2025 13:30;1933
03.01.2025 13:45;1947
03.01.2025 14:00;1927
03.01.2025 14:15;1886
03.01.2025 14:30;1843
03.01.2025 14:45;1822
03.01.2025 15:00;1815
03.01.2025 15:15;1760
03.01.2025 15:30;1734
03.01.2025 15:45;1726
03.01.2025 16:00;1713
03.01.2025 16:15;1719
03.01.2025 16:30;1749
03.01.2025 16:45;1778
03.01.2025 17:00;1845
03.01.2025 17:15;1949
03.01.2025 17:30;2003
03.01.2025 17:45;2035
03.01.2025 18:00;2045
03.01.2025 18:15;1983
03.01.2025 18:30;1961
03.01.2025 18:45;1921
03.01.2025 19:00;1890
03.01.2025 19:15;1831
03.01.2025 19:30;1787
03.01.2025 19:45;1719
03.01.2025 20:00;1673
03.01.2025 20:15;1622
03.01.2025 20:30;1501
03.01.2025 20:45;1410
03.01.2025 21:00;1333
03.01.2025 21:15;1267
03.01.2025 21:30;1229
03.01.2025 21:45;1172
03.01.2025 22:00;1112
03.01.2025 22:15;1080
03.01.2025 22:30;1034
03.01.2025 22:45;964
03.01.2025 23:00;922
03.01.2025 23:15;879
03.01.2025 23:30;826
03.01.2025 23:45;782
04.01.2025 00:00;751
04.01.2025 00:15;685
04.01.2025 00:30;648
04.01.2025 00:45;620
04.01.2025 01:00;604
04.01.2025 01:15;592
04.01.2025 01:30;574
04.01.2025 01:45;562
04.01.2025 02:00;547
04.01.2025 02:15;529
04.01.2025 02:30;513
04.01.2025 02:45;516
04.01.2025 03:00;511
04.01.2025 03:15;512
04.01.2025 03:30;510
04.01.2025 03:45;502
04.01.2025 04:00;504
04.01.2025 04:15;508
04.01.2025 04:30;507
04.01.2025 04:45;502
04.01.2025 05:00;504
04.01.2025 05:15;515
04.01.2025 05:30;513
04.01.2025 05:45;530
04.01.2025 06:00;541
04.01.2025 06:15;562
04.01.2025 06:30;582
04.01.2025 06:45;607
04.01.2025 07:00;631
04.01.2025 07:15;669
04.01.2025 07:30;694
04.01.2025 07:45;734
04.01.2025 08:00;771
04.01.2025 08:15;815
04.01.2025 08:30;833
04.01.2025 08:45;867
04.01.2025 09:00;907
04.01.2025 09:15;945
04.01.2025 09:30;977
04.01.2025 09:45;1015
04.01.2025 10:00;1044
04.01.2025 10:15;1070
04.01.2025 10:30;1079
04.01.2025 10:45;1084
04.01.2025 11:00;1089
04.01.2025 11:15;1112
04.01.2025 11:30;1118
04.01.2025 11:45;1124
04.01.2025 12:00;1133
04.01.2025 12:15;1128
04.01.2025 12:30;1119
04.01.2025 12:45;1110
04.01.2025 13:00;1106
04.01.2025 13:15;1092
04.01.2025 13:30;1075
04.01.2025 13:45;1056
04.01.2025 14:00;1036
04.01.2025 14:15;1020
04.01.2025 14:30;1001
04.01.2025 14:45;999
04.01.2025 15:00;1003
04.01.2025 15:15;997
04.01.2025 15:30;1000
04.01.2025 15:45;994
04.01.2025 16:00;978
04.01.2025 16:15;972
04.01.2025 16:30;954
04.01.2025 16:45;965
04.01.2025 17:00;990
04.01.2025 17:15;1034
04.01.2025 17:30;1095
04.01.2025 17:45;1129
04.01.2025 18:00;1162
04.01.2025 18:15;1206
04.01.2025 18:30;1223
04.01.2025 18:45;1228
04.01.2025 19:00;1226
04.01.2025 19:15;1199
04.01.2025 19:30;1167
04.01.2025 19:45;1138
04.01.2025 20:00;1102
04.01.2025 20:15;1059
04.01.2025 20:30;990
04.01.2025 20:45;932
04.01.2025 21:00;898
04.01.2025 21:15;870
04.01.2025 21:30;834
04.01.2025 21:45;797
04.01.2025 22:00;772
04.01.2025 22:15;769
04.01.2025 22:30;743
04.01.2025 22:45;715
04.01.2025 23:00;693
04.01.2025 23:15;660
04.01.2025 23:30;635
04.01.2025 23:45;637
05.01.2025 00:00;612
05.01.2025 00:15;565
05.01.2025 00:30;540
05.01.2025 00:45;519
05.01.2025 01:00;490
05.01.2025 01:15;478
05.01.2025 01:30;464
05.01.2025 01:45;449
05.01.2025 02:00;439
05.01.2025 02:15;433
05.01.2025 02:30;427
05.01.2025 02:45;421
05.01.2025 03:00;417
05.01.2025 03:15;414
05.01.2025 03:30;410
05.01.2025 03:45;407
05.01.2025 04:00;406
05.01.2025 04:15;417
05.01.2025 04:30;424
05.01.2025 04:45;424
05.01.2025 05:00;429
05.01.2025 05:15;432
05.01.2025 05:30;434
05.01.2025 05:45;438
05.01.2025 06:00;441
05.01.2025 06:15;452
05.01.2025 06:30;458
05.01.2025 06:45;465
05.01.2025 07:00;475
05.01.2025 07:15;491
05.01.2025 07:30;507
05.01.2025 07:45;524
05.01.2025 08:00;542
05.01.2025 08:15;571
05.01.2025 08:30;593
05.01.2025 08:45;616
05.01.2025 09:00;647
05.01.2025 09:15;681
05.01.2025 09:30;711
05.01.2025 09:45;741
05.01.2025 10:00;768
05.01.2025 10:15;791
05.01.2025 10:30;822
05.01.2025 10:45;850
05.01.2025 11:00;868
05.01.2025 11:15;891
05.01.2025 11:30;913
05.01.2025 11:45;926
05.01.2025 12:00;947
05.01.2025 12:15;961
05.01.2025 12:30;964
05.01.2025 12:45;969
05.01.2025 13:00;952
05.01.2025 13:15;906
05.01.2025 13:30;891
05.01.2025 13:45;882
05.01.2025 14:00;867
05.01.2025 14:15;852
05.01.2025 14:30;843
05.01.2025 14:45;835
05.01.2025 15:00;838
05.01.2025 15:15;838
05.01.2025 15:30;829
05.01.2025 15:45;825
05.01.2025 16:00;837
05.01.2025 16:15;836
05.01.2025 16:30;853
05.01.2025 16:45;882
05.01.2025 17:00;928
05.01.2025 17:15;979
05.01.2025 17:30;1023
05.01.2025 17:45;1075
05.01.2025 18:00;1116
05.01.2025 18:15;1143
05.01.2025 18:30;1143
05.01.2025 18:45;1154
05.01.2025 19:00;1156
05.01.2025 19:15;1138
05.01.2025 19:30;1113
05.01.2025 19:45;1085
05.01.2025 20:00;1061
05.01.2025 20:15;1043
05.01.2025 20:30;998
05.01.2025 20:45;946
05.01.2025 21:00;910
05.01.2025 21:15;883
05.01.2025 21:30;858
05.01.2025 21:45;825
05.01.2025 22:00;810
05.01.2025 22:15;810
05.01.2025 22:30;793
05.01.2025 22:45;766
05.01.2025 23:00;732
05.01.2025 23:15;701
05.01.2025 23:30;664
05.01.2025 23:45;634
06.01.2025 00:00;613
06.01.2025 00:15;590
06.01.2025 00:30;572
06.01.2025 00:45;552
06.01.2025 01:00;537
06.01.2025 01:15;529
06.01.2025 01:30;523
06.01.2025 01:45;521
06.01.2025 02:00;512
06.01.2025 02:15;509
06.01.2025 02:30;500
06.01.2025 02:45;498
06.01.2025 03:00;495
06.01.2025 03:15;504
06.01.2025 03:30;508
06.01.2025 03:45;512
06.01.2025 04:00;514
06.01.2025 04:15;516
06.01.2025 04:30;541
06.01.2025 04:45;566
06.01.2025 05:00;594
06.01.2025 05:15;643
06.01.2025 05:30;678
06.01.2025 05:45;738
06.01.2025 06:00;814
06.01.2025 06:15;942
06.01.2025 06:30;1098
06.01.2025 06:45;1221
06.01.2025 07:00;1354
06.01.2025 07:15;1490
06.01.2025 07:30;1608
06.01.2025 07:45;1695
06.01.2025 08:00;1772
06.01.2025 08:15;1854
06.01.2025 08:30;1894
06.01.2025 08:45;1939
06.01.2025 09:00;1944
06.01.2025 09:15;1948
06.01.2025 09:30;1988
06.01.2025 09:45;2023
06.01.2025 10:00;2054
06.01.2025 10:15;2068
06.01.2025 10:30;2054
06.01.2025 10:45;2038
06.01.2025 11:00;2024
06.01.2025 11:15;2025
06.01.2025 11:30;2030
06.01.2025 11:45;2017
06.01.2025 12:00;2020
06.01.2025 12:15;2022
06.01.2025 12:30;2068
06.01.2025 12:45;2092
06.01.2025 13:00;2091
06.01.2025 13:15;2107
06.01.2025 13:30;2140
06.01.2025 13:45;2122
06.01.2025 14:00;2051
06.01.2025 14:15;2012
06.01.2025 14:30;2027
06.01.2025 14:45;2043
06.01.2025 15:00;2028
06.01.2025 15:15;1978
06.01.2025 15:30;1966
06.01.2025 15:45;1925
06.01.2025 16:00;1919
06.01.2025 16:15;1898
06.01.2025 16:30;1883
06.01.2025 16:45;1861
06.01.2025 17:00;1911
06.01.2025 17:15;1973
06.01.2025 17:30;2030
06.01.2025 17:45;2033
06.01.2025 18:00;2043
06.01.2025 18:15;2077
06.01.2025 18:30;2089
06.01.2025 18:45;2094
06.01.2025 19:00;2088
06.01.2025 19:15;2060
06.01.2025 19:30;2017
06.01.2025 19:45;1955
06.01.2025 20:00;1890
06.01.2025 20:15;1821
06.01.2025 20:30;1696
06.01.2025 20:45;1595
06.01.2025 21:00;1519
06.01.2025 21:15;1461
06.01.2025 21:30;1400
06.01.2025 21:45;1312
06.01.2025 22:00;1220
06.01.2025 22:15;1171
06.01.2025 22:30;1106
06.01.2025 22:45;1014
06.01.2025 23:00;953
06.01.2025 23:15;896
06.01.2025 23:30;851
06.01.2025 23:45;808
07.01.2025 00:00;772
07.01.2025 00:15;735
07.01.2025 00:30;711
07.01.2025 00:45;674
07.01.2025 01:00;647
07.01.2025 01:15;630
07.01.2025 01:30;618
07.01.2025 01:45;611
07.01.2025 02:00;600
07.01.2025 02:15;591
07.01.2025 02:30;583
07.01.2025 02:45;588
07.01.2025 03:00;588
07.01.2025 03:15;586
07.01.2025 03:30;582
07.01.2025 03:45;589
07.01.2025 04:00;590
07.01.2025 04:15;602
07.01.2025 04:30;618
07.01.2025 04:45;645
07.01.2025 05:00;667
07.01.2025 05:15;717
07.01.2025 05:30;771
07.01.2025 05:45;836
07.01.2025 06:00;912
07.01.2025 06:15;1027
07.01.2025 06:30;1179
07.01.2025 06:45;1308
07.01.2025 07:00;1448
07.01.2025 07:15;1569
07.01.2025 07:30;1671
07.01.2025 07:45;1757
07.01.2025 08:00;1836
07.01.2025 08:15;1898
07.01.2025 08:30;1922
07.01.2025 08:45;1930
07.01.2025 09:00;1949
07.01.2025 09:15;1937
07.01.2025 09:30;1960
07.01.2025 09:45;2010
07.01.2025 10:00;2019
07.01.2025 10:15;2023
07.01.2025 10:30;2054
07.01.2025 10:45;2061
07.01.2025 11:00;2080
07.01.2025 11:15;2101
07.01.2025 11:30;2117
07.01.2025 11:45;2109
07.01.2025 12:00;2087
07.01.2025 12:15;2085
07.01.2025 12:30;2095
07.01.2025 12:45;2098
07.01.2025 13:00;2117
07.01.2025 13:15;2098
07.01.2025 13:30;2094
07.01.2025 13:45;2056
07.01.2025 14:00;2007
07.01.2025 14:15;1977
07.01.2025 14:30;1992
07.01.2025 14:45;1967
07.01.2025 15:00;1951
07.01.2025 15:15;1931
07.01.2025 15:30;1874
07.01.2025 15:45;1867
07.01.2025 16:00;1857
07.01.2025 16:15;1831
07.01.2025 16:30;1808
07.01.2025 16:45;1790
07.01.2025 17:00;1839
07.01.2025 17:15;1914
07.01.2025 17:30;2002
07.01.2025 17:45;2040
07.01.2025 18:00;2077
07.01.2025 18:15;2097
07.01.2025 18:30;2115
07.01.2025 18:45;2089
07.01.2025 19:00;2064
07.01.2025 19:15;2046
07.01.2025 19:30;2008
07.01.2025 19:45;1956
07.01.2025 20:00;1907
07.01.2025 20:15;1838
07.01.2025 20:30;1697
07.01.2025 20:45;1600
07.01.2025 21:00;1550
07.01.2025 21:15;1487
07.01.2025 21:30;1410
07.01.2025 21:45;1338
07.01.2025 22:00;1236
07.01.2025 22:15;1181
07.01.2025 22:30;1110
07.01.2025 22:45;1029
07.01.2025 23:00;973
07.01.2025 23:15;912
07.01.2025 23:30;852
07.01.2025 23:45;800
08.01.2025 00:00;763
08.01.2025 00:15;725
08.01.2025 00:30;688
08.01.2025 00:45;670
08.01.2025 01:00;646
08.01.2025 01:15;625
08.01.2025 01:30;609
08.01.2025 01:45;597
08.01.2025 02:00;592
08.01.2025 02:15;579
08.01.2025 02:30;568
08.01.2025 02:45;568
08.01.2025 03:00;571
08.01.2025 03:15;579
08.01.2025 03:30;579
08.01.2025 03:45;582
08.01.2025 04:00;594
08.01.2025 04:15;602
08.01.2025 04:30;609
08.01.2025 04:45;629
08.01.2025 05:00;660
08.01.2025 05:15;702
08.01.2025 05:30;747
08.01.2025 05:45;806
08.01.2025 06:00;880
08.01.2025 06:15;1004
08.01.2025 06:30;1150
08.01.2025 06:45;1305
08.01.2025 07:00;1436
08.01.2025 07:15;1579
08.01.2025 07:30;1685
08.01.2025 07:45;1760
08.01.2025 08:00;1837
08.01.2025 08:15;1907
08.01.2025 08:30;1959
08.01.2025 08:45;1958
08.01.2025 09:00;1967
08.01.2025 09:15;1955
08.01.2025 09:30;1989
08.01.2025 09:45;2029
08.01.2025 10:00;2041
08.01.2025 10:15;2059
08.01.2025 10:30;2085
08.01.2025 10:45;2084
08.01.2025 11:00;2095
08.01.2025 11:15;2112
08.01.2025 11:30;2119
08.01.2025 11:45;2095
08.01.2025 12:00;2054
08.01.2025 12:15;2047
08.01.2025 12:30;2078
08.01.2025 12:45;2065
08.01.2025 13:00;2075
08.01.2025 13:15;2070
08.01.2025 13:30;2070
08.01.2025 13:45;2073
08.01.2025 14:00;2024
08.01.2025 14:15;1981
08.01.2025 14:30;1975
08.01.2025 14:45;1970
08.01.2025 15:00;1964
08.01.2025 15:15;1916
08.01.2025 15:30;1889
08.01.2025 15:45;1868
08.01.2025 16:00;1856
08.01.2025 16:15;1846
08.01.2025 16:30;1839
08.01.2025 16:45;1856
08.01.2025 17:00;1895
08.01.2025 17:15;1949
08.01.2025 17:30;1992
08.01.2025 17:45;1987
08.01.2025 18:00;2010
08.01.2025 18:15;2036
08.01.2025 18:30;2041
08.01.2025 18:45;2021
08.01.2025 19:00;2004
08.01.2025 19:15;1963
08.01.2025 19:30;1935
08.01.2025 19:45;1860
08.01.2025 20:00;1814
08.01.2025 20:15;1738
08.01.2025 20:30;1602
08.01.2025 20:45;1504
08.01.2025 21:00;1438
08.01.2025 21:15;1373
08.01.2025 21:30;1307
08.01.2025 21:45;1225
08.01.2025 22:00;1157
08.01.2025 22:15;1099
08.01.2025 22:30;1044
08.01.2025 22:45;973
08.01.2025 23:00;922
08.01.2025 23:15;872
08.01.2025 23:30;814
08.01.2025 23:45;758
09.01.2025 00:00;714
09.01.2025 00:15;714
09.01.2025 00:30;695
09.01.2025 00:45;661
09.01.2025 01:00;635
09.01.2025 01:15;612
09.01.2025 01:30;607
09.01.2025 01:45;595
09.01.2025 02:00;588
09.01.2025 02:15;579
09.01.2025 02:30;567
09.01.2025 02:45;566
09.01.2025 03:00;571
09.01.2025 03:15;570
09.01.2025 03:30;575
09.01.2025 03:45;578
09.01.2025 04:00;582
09.01.2025 04:15;591
09.01.2025 04:30;602
09.01.2025 04:45;625
09.01.2025 05:00;655
09.01.2025 05:15;700
09.01.2025 05:30;746
09.01.2025 05:45;812
09.01.2025 06:00;892
09.01.2025 06:15;1023
09.01.2025 06:30;1171
09.01.2025 06:45;1325
09.01.2025 07:00;1453
09.01.2025 07:15;1577
09.01.2025 07:30;1708
09.01.2025 07:45;1787
09.01.2025 08:00;1853
09.01.2025 08:15;1921
09.01.2025 08:30;1951
09.01.2025 08:45;1962
09.01.2025 09:00;1982
09.01.2025 09:15;1942
09.01.2025 09:30;1955
09.01.2025 09:45;2029
09.01.2025 10:00;2076
09.01.2025 10:15;2066
09.01.2025 10:30;2079
09.01.2025 10:45;2086
09.01.2025 11:00;2078
09.01.2025 11:15;2082
09.01.2025 11:30;2119
09.01.2025 11:45;2176
09.01.2025 12:00;2181
09.01.2025 12:15;2165
09.01.2025 12:30;2159
09.01.2025 12:45;2170
09.01.2025 13:00;2171
09.01.2025 13:15;2166
09.01.2025 13:30;2151
09.01.2025 13:45;2120
09.01.2025 14:00;2093
09.01.2025 14:15;2036
09.01.2025 14:30;2003
09.01.2025 14:45;1987
09.01.2025 15:00;1992
09.01.2025 15:15;1991
09.01.2025 15:30;1965
09.01.2025 15:45;1921
09.01.2025 16:00;1899
09.01.2025 16:15;1875
09.01.2025 16:30;1867
09.01.2025 16:45;1873
09.01.2025 17:00;1899
09.01.2025 17:15;1946
09.01.2025 17:30;2010
09.01.2025 17:45;2014
09.01.2025 18:00;2061
09.01.2025 18:15;2080
09.01.2025 18:30;2075
09.01.2025 18:45;2095
09.01.2025 19:00;2077
09.01.2025 19:15;2070
09.01.2025 19:30;2016
09.01.2025 19:45;1986
09.01.2025 20:00;1933
09.01.2025 20:15;1862
09.01.2025 20:30;1740
09.01.2025 20:45;1642
09.01.2025 21:00;1537
09.01.2025 21:15;1472
09.01.2025 21:30;1410
09.01.2025 21:45;1301
09.01.2025 22:00;1216
09.01.2025 22:15;1157
09.01.2025 22:30;1095
09.01.2025 22:45;1025
09.01.2025 23:00;969
09.01.2025 23:15;916
09.01.2025 23:30;857
09.01.2025 23:45;798
10.01.2025 00:00;757
10.01.2025 00:15;701
10.01.2025 00:30;666
10.01.2025 00:45;647
10.01.2025 01:00;622
10.01.2025 01:15;606
10.01.2025 01:30;582
10.01.2025 01:45;571
10.01.2025 02:00;555
10.01.2025 02:15;544
10.01.2025 02:30;537
10.01.2025 02:45;530
10.01.2025 03:00;543
10.01.2025 03:15;557
10.01.2025 03:30;562
10.01.2025 03:45;566
10.01.2025 04:00;570
10.01.2025 04:15;592
10.01.2025 04:30;619
10.01.2025 04:45;649
10.01.2025 05:00;669
10.01.2025 05:15;706
10.01.2025 05:30;750
10.01.2025 05:45;823
10.01.2025 06:00;912
10.01.2025 06:15;1026
10.01.2025 06:30;1191
10.01.2025 06:45;1314
10.01.2025 07:00;1457
10.01.2025 07:15;1603
10.01.2025 07:30;1741
10.01.2025 07:45;1831
10.01.2025 08:00;1910
10.01.2025 08:15;2004
10.01.2025 08:30;2003
10.01.2025 08:45;2016
10.01.2025 09:00;1996
10.01.2025 09:15;1986
10.01.2025 09:30;2055
10.01.2025 09:45;2102
10.01.2025 10:00;2118
10.01.2025 10:15;2108
10.01.2025 10:30;2108
10.01.2025 10:45;2149
10.01.2025 11:00;2127
10.01.2025 11:15;2070
10.01.2025 11:30;2104
10.01.2025 11:45;2101
10.01.2025 12:00;2081
10.01.2025 12:15;2057
10.01.2025 12:30;2047
10.01.2025 12:45;2027
10.01.2025 13:00;1979
10.01.2025 13:15;1968
10.01.2025 13:30;1933
10.01.2025 13:45;1947
10.01.2025 14:00;1927
10.01.2025 14:15;1886
10.01.2025 14:30;1843
10.01.2025 14:45;1822
10.01.2025 15:00;1815
10.01.2025 15:15;1760
10.01.2025 15:30;1734
10.01.2025 15:45;1726
10.01.2025 16:00;1713
10.01.2025 16:15;1719
10.01.2025 16:30;1749
10.01.2025 16:45;1778
10.01.2025 17:00;1845
10.01.2025 17:15;1949
10.01.2025 17:30;2003
10.01.2025 17:45;2035
10.01.2025 18:00;2045
10.01.2025 18:15;1983
10.01.2025 18:30;1961
10.01.2025 18:45;1921
10.01.2025 19:00;1890
10.01.2025 19:15;1831
10.01.2025 19:30;1787
10.01.2025 19:45;1719
10.01.2025 20:00;1673
10.01.2025 20:15;1622
10.01.2025 20:30;1501
10.01.2025 20:45;1410
10.01.2025 21:00;1333
10.01.2025 21:15;1267
10.01.2025 21:30;1229
10.01.2025 21:45;1172
10.01.2025 22:00;1112
10.01.2025 22:15;1080
10.01.2025 22:30;1034
10.01.2025 22:45;964
10.01.2025 23:00;922
10.01.2025 23:15;879
10.01.2025 23:30;826
10.01.2025 23:45;782
11.01.2025 00:00;751
11.01.2025 00:15;696
11.01.2025 00:30;656
11.01.2025 00:45;628
11.01.2025 01:00;607
11.01.2025 01:15;592
11.01.2025 01:30;576
11.01.2025 01:45;562
11.01.2025 02:00;551
11.01.2025 02:15;533
11.01.2025 02:30;519
11.01.2025 02:45;515
11.01.2025 03:00;510
11.01.2025 03:15;510
11.01.2025 03:30;509
11.01.2025 03:45;500
11.01.2025 04:00;501
11.01.2025 04:15;505
11.01.2025 04:30;504
11.01.2025 04:45;501
11.01.2025 05:00;504
11.01.2025 05:15;514
11.01.2025 05:30;521
11.01.2025 05:45;531
11.01.2025 06:00;545
11.01.2025 06:15;568
11.01.2025 06:30;589
11.01.2025 06:45;615
11.01.2025 07:00;639
11.01.2025 07:15;673
11.01.2025 07:30;700
11.01.2025 07:45;742
11.01.2025 08:00;790
11.01.2025 08:15;831
11.01.2025 08:30;855
11.01.2025 08:45;892
11.01.2025 09:00;939
11.01.2025 09:15;980
11.01.2025 09:30;1015
11.01.2025 09:45;1050
11.01.2025 10:00;1083
11.01.2025 10:15;1103
11.01.2025 10:30;1117
11.01.2025 10:45;1119
11.01.2025 11:00;1142
11.01.2025 11:15;1177
11.01.2025 11:30;1184
11.01.2025 11:45;1185
11.01.2025 12:00;1188
11.01.2025 12:15;1172
11.01.2025 12:30;1170
11.01.2025 12:45;1154
11.01.2025 13:00;1147
11.01.2025 13:15;1130
11.01.2025 13:30;1097
11.01.2025 13:45;1075
11.01.2025 14:00;1055
11.01.2025 14:15;1037
11.01.2025 14:30;1012
11.01.2025 14:45;1014
11.01.2025 15:00;1021
11.01.2025 15:15;1017
11.01.2025 15:30;1020
11.01.2025 15:45;1009
11.01.2025 16:00;997
11.01.2025 16:15;1001
11.01.2025 16:30;987
11.01.2025 16:45;1002
11.01.2025 17:00;1039
11.01.2025 17:15;1090
11.01.2025 17:30;1163
11.01.2025 17:45;1198
11.01.2025 18:00;1232
11.01.2025 18:15;1262
11.01.2025 18:30;1273
11.01.2025 18:45;1270
11.01.2025 19:00;1263
11.01.2025 19:15;1236
11.01.2025 19:30;1202
11.01.2025 19:45;1174
11.01.2025 20:00;1140
11.01.2025 20:15;1096
11.01.2025 20:30;1014
11.01.2025 20:45;954
11.01.2025 21:00;919
11.01.2025 21:15;886
11.01.2025 21:30;849
11.01.2025 21:45;812
11.01.2025 22:00;785
11.01.2025 22:15;782
11.01.2025 22:30;758
11.01.2025 22:45;727
11.01.2025 23:00;704
11.01.2025 23:15;674
11.01.2025 23:30;642
11.01.2025 23:45;633
12.01.2025 00:00;609
12.01.2025 00:15;577
12.01.2025 00:30;551
12.01.2025 00:45;526
12.01.2025 01:00;495
12.01.2025 01:15;482
12.01.2025 01:30;463
12.01.2025 01:45;445
12.01.2025 02:00;434